• In Uzbekistan
  • List of Countries
  • For 7 days
  • Water Temperature
  • Weather Map
  • Weather Widgets
  • user-avatar
    Login

    Hourly Weather Barinas

    Today, 16 October, Wednesday

    Time Temperature Precipitation Wind Pressure Humidity
    00:00 +23°C° 0 mm 0 mps 743 mmHg 87%
    01:00 +23°C° 0 mm 0 mps 743 mmHg 85%
    02:00 +25°C° 0 mm 1 mps 743 mmHg 84%
    03:00 +25°C° 0 mm 1 mps 743 mmHg 83%
    04:00 +25°C° 0 mm 1 mps 743 mmHg 82%
    05:00 +26°C° 0 mm 1 mps 743 mmHg 81%
    06:00 +26°C° 0 mm 1 mps 744 mmHg 79%
    07:00 +26°C° 0 mm 1 mps 744 mmHg 83%
    08:00 +27°C° 0.1 mm 1 mps 744 mmHg 82%
    09:00 +27°C° 0.1 mm 1 mps 744 mmHg 81%
    10:00 +28°C° 0.1 mm 1 mps 744 mmHg 80%
    11:00 +29°C° 0 mm 1 mps 744 mmHg 74%
    12:00 +31°C° 0 mm 1 mps 743 mmHg 67%
    13:00 +32°C° 0 mm 1 mps 742 mmHg 60%
    14:00 +32°C° 0.2 mm 1 mps 742 mmHg 65%
    15:00 +31°C° 0.2 mm 1 mps 742 mmHg 70%
    16:00 +31°C° 0.2 mm 2 mps 741 mmHg 74%
    17:00 +29°C° 0.4 mm 1 mps 742 mmHg 79%
    18:00 +28°C° 0.4 mm 1 mps 742 mmHg 84%
    19:00 +27°C° 0.4 mm 1 mps 743 mmHg 89%
    20:00 +26°C° 0 mm 1 mps 743 mmHg 90%
    21:00 +26°C° 0 mm 1 mps 743 mmHg 91%
    22:00 +26°C° 0 mm 1 mps 744 mmHg 92%
    23:00 +25°C° 0 mm 1 mps 743 mmHg 92%

    Tomorrow, 17 October, Thursday

    Time Temperature Precipitation Wind Pressure Humidity
    00:00 +25°C° 0 mm 1 mps 743 mmHg 92%
    01:00 +25°C° 0 mm 1 mps 743 mmHg 91%
    02:00 +25°C° 0.1 mm 1 mps 743 mmHg 91%
    03:00 +24°C° 0.1 mm 1 mps 743 mmHg 91%
    04:00 +24°C° 0.1 mm 1 mps 742 mmHg 91%
    05:00 +25°C° 0 mm 1 mps 743 mmHg 89%
    06:00 +26°C° 0 mm 1 mps 743 mmHg 86%
    07:00 +26°C° 0 mm 1 mps 744 mmHg 83%
    08:00 +28°C° 0 mm 1 mps 744 mmHg 76%
    09:00 +30°C° 0 mm 1 mps 744 mmHg 69%
    10:00 +32°C° 0 mm 1 mps 744 mmHg 62%
    11:00 +32°C° 0 mm 1 mps 743 mmHg 62%
    12:00 +34°C° 0 mm 2 mps 743 mmHg 61%
    13:00 +34°C° 0 mm 2 mps 742 mmHg 60%
    14:00 +32°C° 0.7 mm 2 mps 741 mmHg 66%
    15:00 +32°C° 0.7 mm 1 mps 741 mmHg 72%
    16:00 +31°C° 0.7 mm 1 mps 741 mmHg 77%
    17:00 +30°C° 0.2 mm 1 mps 741 mmHg 81%
    18:00 +28°C° 0.2 mm 1 mps 741 mmHg 84%
    19:00 +27°C° 0.2 mm 1 mps 742 mmHg 87%
    20:00 +27°C° 0 mm 1 mps 742 mmHg 87%
    21:00 +26°C° 0 mm 1 mps 742 mmHg 88%
    22:00 +26°C° 0 mm 1 mps 742 mmHg 89%
    23:00 +26°C° 1.3 mm 1 mps 742 mmHg 90%

    Day after tomorrow, 18 October, Friday

    Time Temperature Precipitation Wind Pressure Humidity
    00:00 +25°C° 1.3 mm 1 mps 742 mmHg 91%
    01:00 +23°C° 1.3 mm 0 mps 742 mmHg 92%
    02:00 +25°C° 2.2 mm 1 mps 742 mmHg 93%
    03:00 +25°C° 2.2 mm 1 mps 742 mmHg 94%
    04:00 +25°C° 2.2 mm 1 mps 742 mmHg 95%
    05:00 +25°C° 0.9 mm 1 mps 742 mmHg 94%
    06:00 +25°C° 0.9 mm 1 mps 743 mmHg 93%
    07:00 +25°C° 0.9 mm 2 mps 743 mmHg 91%
    08:00 +27°C° 0.3 mm 1 mps 744 mmHg 85%
    09:00 +28°C° 0.3 mm 1 mps 744 mmHg 79%
    10:00 +30°C° 0.3 mm 1 mps 745 mmHg 73%
    11:00 +30°C° 0 mm 1 mps 744 mmHg 71%
    12:00 +31°C° 0 mm 1 mps 743 mmHg 69%
    13:00 +31°C° 0 mm 2 mps 742 mmHg 67%
    14:00 +31°C° 0.1 mm 1 mps 742 mmHg 69%
    15:00 +30°C° 0.1 mm 1 mps 741 mmHg 72%
    16:00 +30°C° 0.1 mm 1 mps 741 mmHg 75%
    17:00 +29°C° 0 mm 1 mps 741 mmHg 77%
    18:00 +28°C° 0 mm 1 mps 742 mmHg 79%
    19:00 +25°C° 0 mm 0 mps 742 mmHg 80%
    20:00 +26°C° 0 mm 1 mps 742 mmHg 80%
    21:00 +26°C° 0 mm 1 mps 743 mmHg 80%
    22:00 +26°C° 0 mm 1 mps 743 mmHg 80%
    23:00 +25°C° 0.1 mm 1 mps 743 mmHg 81%

    19 October, Saturday

    Time Temperature Precipitation Wind Pressure Humidity
    00:00 +25°C° 0.1 mm 1 mps 742 mmHg 81%
    01:00 +25°C° 0.1 mm 1 mps 742 mmHg 81%
    02:00 +25°C° 0 mm 1 mps 742 mmHg 81%
    03:00 +24°C° 0 mm 1 mps 742 mmHg 81%
    04:00 +24°C° 0 mm 1 mps 742 mmHg 81%
    05:00 +25°C° 0 mm 1 mps 743 mmHg 80%
    06:00 +26°C° 0 mm 1 mps 743 mmHg 79%
    07:00 +27°C° 0 mm 1 mps 743 mmHg 77%
    08:00 +28°C° 0 mm 1 mps 744 mmHg 75%
    09:00 +29°C° 0 mm 1 mps 744 mmHg 73%
    10:00 +30°C° 0 mm 1 mps 744 mmHg 70%
    11:00 +30°C° 0.1 mm 1 mps 743 mmHg 70%
    12:00 +31°C° 0.1 mm 2 mps 742 mmHg 69%
    13:00 +31°C° 0.1 mm 2 mps 741 mmHg 68%
    14:00 +31°C° 0.2 mm 1 mps 741 mmHg 70%
    15:00 +31°C° 0.2 mm 1 mps 741 mmHg 72%
    16:00 +31°C° 0.2 mm 1 mps 741 mmHg 74%
    17:00 +29°C° 0.1 mm 1 mps 741 mmHg 78%
    18:00 +28°C° 0.1 mm 1 mps 741 mmHg 82%
    19:00 +27°C° 0.1 mm 1 mps 742 mmHg 87%
    20:00 +27°C° 0.8 mm 1 mps 742 mmHg 89%
    21:00 +26°C° 0.8 mm 1 mps 743 mmHg 91%
    22:00 +26°C° 0.8 mm 2 mps 743 mmHg 93%
    23:00 +26°C° 0.2 mm 2 mps 743 mmHg 92%

    20 October, Sunday

    Time Temperature Precipitation Wind Pressure Humidity
    00:00 +25°C° 0.2 mm 2 mps 743 mmHg 91%
    01:00 +25°C° 0.2 mm 2 mps 742 mmHg 91%
    02:00 +25°C° 0.2 mm 1 mps 742 mmHg 92%
    03:00 +24°C° 0.2 mm 1 mps 742 mmHg 93%
    04:00 +24°C° 0.2 mm 1 mps 742 mmHg 94%
    05:00 +24°C° 0.2 mm 1 mps 743 mmHg 93%
    06:00 +24°C° 0.2 mm 1 mps 743 mmHg 93%
    07:00 +24°C° 0.2 mm 1 mps 744 mmHg 92%
    08:00 +25°C° 0.1 mm 1 mps 744 mmHg 90%
    09:00 +25°C° 0.1 mm 1 mps 745 mmHg 89%
    10:00 +26°C° 0.1 mm 1 mps 745 mmHg 87%
    11:00 +26°C° 0 mm 1 mps 744 mmHg 84%
    12:00 +27°C° 0 mm 1 mps 743 mmHg 82%
    13:00 +27°C° 0 mm 1 mps 742 mmHg 79%
    14:00 +26°C° 0 mm 0 mps 742 mmHg 77%
    15:00 +27°C° 0 mm 0 mps 741 mmHg 75%
    16:00 +27°C° 0 mm 0 mps 741 mmHg 73%
    17:00 +26°C° 0 mm 0 mps 741 mmHg 76%
    18:00 +27°C° 0 mm 1 mps 742 mmHg 78%
    19:00 +26°C° 0 mm 1 mps 742 mmHg 81%
    20:00 +26°C° 0.4 mm 1 mps 743 mmHg 82%
    21:00 +24°C° 0.4 mm 0 mps 743 mmHg 84%
    22:00 +24°C° 0.4 mm 0 mps 743 mmHg 86%
    23:00 +23°C° 1.5 mm 0 mps 743 mmHg 88%

    21 October, Monday

    Time Temperature Precipitation Wind Pressure Humidity
    00:00 +25°C° 1.5 mm 1 mps 743 mmHg 91%
    01:00 +24°C° 1.5 mm 1 mps 743 mmHg 93%
    02:00 +24°C° 0.4 mm 1 mps 742 mmHg 94%
    03:00 +24°C° 0.4 mm 1 mps 742 mmHg 94%
    04:00 +24°C° 0.4 mm 1 mps 742 mmHg 94%
    05:00 +25°C° 0 mm 1 mps 743 mmHg 93%
    06:00 +25°C° 0 mm 1 mps 743 mmHg 91%
    07:00 +25°C° 0 mm 1 mps 744 mmHg 89%
    08:00 +28°C° 0 mm 1 mps 744 mmHg 79%
    09:00 +30°C° 0 mm 1 mps 744 mmHg 69%
    10:00 +30°C° 0 mm 0 mps 744 mmHg 59%
    11:00 +32°C° 0.4 mm 1 mps 743 mmHg 62%
    12:00 +32°C° 0.4 mm 2 mps 742 mmHg 65%
    13:00 +32°C° 0.4 mm 2 mps 741 mmHg 68%
    14:00 +32°C° 0.7 mm 2 mps 741 mmHg 71%
    15:00 +31°C° 0.7 mm 1 mps 741 mmHg 73%
    16:00 +31°C° 0.7 mm 1 mps 740 mmHg 76%
    17:00 +29°C° 0.1 mm 1 mps 741 mmHg 80%
    18:00 +28°C° 0.1 mm 1 mps 741 mmHg 84%
    19:00 +26°C° 0.1 mm 1 mps 742 mmHg 88%
    20:00 +26°C° 2.3 mm 1 mps 742 mmHg 90%
    21:00 +25°C° 2.3 mm 1 mps 742 mmHg 92%
    22:00 +25°C° 2.3 mm 1 mps 742 mmHg 94%
    23:00 +25°C° 2.5 mm 1 mps 742 mmHg 94%
    Show more